Flag for U.S.A. Weather past 2 weeks in Oceanside, California, U.S.A.

Now
63 °F

Overcast.


Feels Like: 63 °F
Forecast: 57 / 69 °F
Wind: 5 mph from North

Location: Oceanside Weather Reporting Station

Current Time: May 3, 2015 at 8:53:57 AM

Latest Report: May 3, 2015 at 7:52 AM


Visibility: 10 mi

Pressure: 29.90 "Hg

Humidity: 73%

Dew point: 54 °F

Location of OceansideLocation

Historic Weather in Oceanside — Graph

°F

Oceanside temperature yesterday

Maximum temperature yesterday: 71 °F (at 12:52 PM)
Minimum temperature yesterday: 50 °F (at 5:52 AM)
Average temperature yesterday: 62 °F

Past Weeks' High & Low Weather Summary

 TemperatureHumidityPressure
High86 °F (Apr 29, 10:52 AM)93% (Apr 19, 7:01 AM)30.02 "Hg (Apr 19, 7:01 AM)
Low47 °F (Apr 27, 4:52 AM)19% (Apr 29, 10:52 AM)29.78 "Hg (Apr 29, 6:52 PM)
Average63 °F67%29.90 "Hg
* Reported Apr 18 7:52 AM — May 3 7:52 AM, Oceanside, Weather by CustomWeather, © 2015

Note: Actual official high and low records may vary slightly from our data, if they occured in-between our weather recording intervals... More about our weather records

Advertising

Oceanside weather history for previous 24 hours

 ConditionsComfort  
Time TempWeatherWind HumidityBarometerVisibility
7:52 AM
Sun, May 3
63 °FOvercast.5 mph73%29.90 "Hg10 mi
6:52 AM62 °FOvercast.No wind75%29.88 "Hg10 mi
5:52 AM59 °FOvercast.No wind84%29.87 "Hg10 mi
4:52 AM60 °FPassing clouds.No wind80%29.86 "Hg10 mi
3:52 AM62 °FOvercast.No wind78%29.87 "Hg10 mi
2:52 AM62 °FOvercast.No wind80%29.88 "Hg10 mi
1:52 AM62 °FOvercast.No wind80%29.88 "Hg10 mi
12:52 AM62 °FMostly cloudy.No wind78%29.89 "Hg10 mi
11:52 PM
Sat, May 2
61 °FOvercast.5 mph81%29.89 "Hg10 mi
10:52 PM60 °FOvercast.No wind80%29.89 "Hg10 mi
9:52 PM60 °FPassing clouds.No wind80%29.88 "Hg10 mi
8:52 PM63 °FClear.5 mph78%29.87 "Hg10 mi
7:52 PM64 °FSunny.6 mph75%29.85 "Hg10 mi
7:03 PM65 °FPartly sunny.8 mph73%29.85 "Hg10 mi
6:52 PM65 °FScattered clouds.7 mph73%29.85 "Hg10 mi
6:04 PM65 °FPartly sunny.8 mph73%29.85 "Hg10 mi
5:52 PM65 °FPassing clouds.9 mph76%29.85 "Hg10 mi
4:52 PM69 °FPartly sunny.7 mph66%29.83 "Hg10 mi
3:52 PM69 °FPartly sunny.14 mph68%29.82 "Hg10 mi
2:52 PM71 °FScattered clouds.12 mph63%29.83 "Hg10 mi
1:52 PM71 °FSunny.14 mph63%29.85 "Hg10 mi
12:52 PM71 °FSunny.13 mph61%29.86 "Hg10 mi
11:52 AM69 °FSunny.12 mph66%29.88 "Hg10 mi
10:52 AM68 °FPassing clouds.10 mph65%29.89 "Hg10 mi
9:52 AM67 °FPassing clouds.8 mph71%29.88 "Hg10 mi
8:52 AM68 °FSunny.7 mph68%29.87 "Hg10 mi
Weather by CustomWeather, © 2015

See weather overviewHow to use our weather pages